Location: ?????????
(53.2086°N, 54.0693°E)
Time: 07:57:22
(UTC+00:00)

COSMOS 2428 - Pass Details

Date: 08 December 2019
Orbit: 844 x 858 km, 70.9° (Epoch: 25 January)

Event Time Altitude Azimuth Distance (km) Brightness Sun altitude
Rises 13:39:18 0° 200° (SSW) 3,393 6.5 -12.8°
Reaches altitude 10° 13:41:44 10° 198° (SSW) 2,463 5.7 -13.2°
Maximum altitude 13:47:21 68° 117° (ESE) 912 2.7 -14.0°
Enters shadow 13:52:04 15° 37° (NE) 2,139 4.3 -14.6°
